• MPC Preparation (Info)

  • MPEC 2013-G08 : 2013 GG

    The following Minor Planet Electronic Circular may be linked-to from your own Web pages, but must not otherwise be redistributed electronically.

    A form allowing access to any MPEC is at the bottom of this page.


    Read MPEC 2013-G07 Read MPEC 2013-G09


    M.P.E.C. 2013-G08                                Issued 2013 Apr. 3, 18:11 UT
    
         The Minor Planet Electronic Circulars contain information on unusual
             minor planets and routine data on comets.  They are published
       on behalf of Commission 20 of the International Astronomical Union by the
              Minor Planet Center, Smithsonian Astrophysical Observatory,
                              Cambridge, MA 02138, U.S.A.
    
                 Prepared using the Tamkin Foundation Computer Network
    
                                  MPC@CFA.HARVARD.EDU
                URL https://www.minorplanetcenter.net/    ISSN 1523-6714
    
                                        2013 GG
    
    Observations:
         K13G00G* C2013 04 01.23227 12 19 22.87 -00 55 18.1          20.6 VuEG008G96
         K13G00G  C2013 04 01.24125 12 19 23.80 -00 54 31.6          20.3 VuEG008G96
         K13G00G  C2013 04 01.25034 12 19 24.67 -00 53 44.7          20.6 VuEG008G96
         K13G00G  C2013 04 01.25935 12 19 25.57 -00 52 58.4          20.7 VuEG008G96
         K13G00G  C2013 04 01.30995 12 19 30.59 -00 48 37.4          20.2 VuEG008G96
         K13G00G  C2013 04 01.31420 12 19 31.03 -00 48 14.5          20.4 VuEG008G96
         K13G00G  C2013 04 01.31843 12 19 31.48 -00 47 54.0          20.9 VuEG008G96
         K13G00G KC2013 04 01.91608 12 20 37.97 +00 03 11.9                qEG008J95
         K13G00G KC2013 04 01.92161 12 20 38.47 +00 03 40.3                qEG008J95
         K13G00G KC2013 04 01.92706 12 20 39.11 +00 04 09.0          20.3 RqEG008J95
         K13G00G KC2013 04 02.15398 12 21 04.32 +00 23 34.0          20.6 RqEG008H36
         K13G00G KC2013 04 02.16958 12 21 05.98 +00 24 53.6          20.4 RqEG008H36
         K13G00G KC2013 04 02.24026712 21 12.89 +00 30 55.2          21.1 VoEG008H21
         K13G00G KC2013 04 02.24990012 21 13.82 +00 31 44.6          21.0 VoEG008H21
         K13G00G IC2013 04 02.25918112 21 14.76 +00 32 32.0          21.0 VoEG008H21
         K13G00G KC2013 04 02.88353 12 22 24.29 +01 25 24.9                uEG008I93
         K13G00G KC2013 04 02.90745 12 22 26.69 +01 27 25.6          20.8 VuEG008I93
         K13G00G KC2013 04 02.93432 12 22 29.44 +01 29 40.5          21.2 VuEG008I93
         K13G00G KC2013 04 02.97641 12 22 33.76 +01 33 11.7                qEG008J95
         K13G00G KC2013 04 02.98236 12 22 34.29 +01 33 41.8                qEG008J95
         K13G00G KC2013 04 02.98854 12 22 34.87 +01 34 13.8          20.5 RqEG008J95
    
    Observer details:
    G96 Mt. Lemmon Survey.  Observer R. A. Kowalski.  Measurers A. Boattini,
        E. J. Christensen, A. R. Gibbs, A. D. Grauer, R. E. Hill, J. A. Johnson,
        R. A. Kowalski, S. M. Larson, R. H. McNaught, F. C. Shelly.  1.5-m
        reflector + CCD.
    H21 Astronomical Research Observatory, Westfield.  Observer R. Holmes.
        Measurers S. Foglia, L. Buzzi, H. Devore, T. Linder, T. Lister,
        T. Vorobjov, A. Kostin.  0.61-m f/4.0 astrograph + CCD.
    H36 Sandlot Observatory, Scranton.  Observer G. Hug.  0.56-m reflector + CCD.
    I93 St Pardon de Conques.  Observer F. Losse.  0.40-m f/3.7 reflector + CCD.
    J95 Great Shefford.  Observer P. Birtwhistle.  0.40-m f/6.0 Schmidt-Cassegrain
        + CCD.
    
    Orbital elements:
    2013 GG                                                  Earth MOID = 0.2918 AU
    Epoch 2013 Apr. 18.0 TT = JDT 2456400.5                 MPC
    M   7.91724              (2000.0)            P               Q
    n   0.28782938     Peri.  351.92545     -0.99752399     +0.00823938
    a   2.2718482      Node   189.43319     -0.01006537     -0.99961560
    e   0.4332961      Incl.   25.22261     -0.06960297     +0.02647182
    P   3.42           H   22.4           G   0.15           U   9
    Residuals in seconds of arc
    130401 G96  0.2-  0.1-    130401 J95  0.4+  0.3-    130402 H21  0.1+  0.3+
    130401 G96  0.3+  0.1+    130401 J95  0.6-  0.2-    130402 I93  0.2+  0.6+
    130401 G96  0.3-  0.1+    130401 J95  0.6+  0.5+    130402 I93  0.4-  0.2+
    130401 G96  0.3-  0.1-    130402 H36  1.0-  0.5-    130402 I93  0.0   1.0-
    130401 G96  0.5-  0.1-    130402 H36  0.2+  0.7-    130402 J95  1.0+  0.2-
    130401 G96  0.2-  0.8+    130402 H21  0.4+  0.1+    130402 J95  0.2-  0.2-
    130401 G96  0.2+  0.5-    130402 H21  0.1-  0.3+    130402 J95  0.9-  0.5+
    
    Ephemeris:
    2013 GG                  a,e,i = 2.27, 0.43, 25                  q = 1.2875
    Date    TT    R. A. (2000) Decl.     Delta      r     Elong.  Phase     V
    2013 03 04    11 28 48.2 -33 45 01   0.3759  1.2992   139.1    30.0    22.1
    ...
    2013 03 19    11 55 02.1 -19 27 07   0.3065  1.2877   159.9    15.4    21.2
    ...
    2013 03 27    12 09 43.7 -08 30 00   0.2925  1.2886   173.1     5.3    20.7
    ...
    2013 04 02    12 20 46.5 +00 10 41   0.2952  1.2926   172.1     6.1    20.8
    2013 04 03    12 22 36.1 +01 35 30   0.2968  1.2935   170.6     7.3    20.9
    2013 04 04    12 24 25.3 +02 59 06   0.2986  1.2945   169.0     8.5    20.9
    ...
    2013 04 10    12 35 11.3 +10 44 53   0.3162  1.3020   159.0    16.0    21.3
    ...
    2013 04 18    12 49 04.7 +18 58 26   0.3540  1.3162   147.4    24.3    21.9
    ...
    2013 05 03    13 13 31.7 +27 45 56   0.4547  1.3542   131.8    33.7    22.8
    
    A. U. Tomatic                (C) Copyright 2013 MPC           M.P.E.C. 2013-G08
    

    Read MPEC 2013-G07 Read MPEC 2013-G09


    MPEC number:

    Enter an MPEC number in one of the following forms:

    • 1997-B01 (the full form)
    • J97B01 (the packed version of the full form)
    • B01 (the abbreviated form)